Погода в Келлоге

Погода в Келлоге : погода сейчас, прогноз погоды и архив. Всё, что Вы хотите узнать о погоде в Келлоге!

Поиск расширенной информации на нашем сайте:

Другие новости

Новости СМИ2

Главная страница сайта

Новости сайта

03.07.2017

Напоминаем, что на нашем специализированном сайте Метеоцентр.Азия вы можете получить высокодетализированные автоматические прогнозы погоды по пунктам России, СНГ и мира в авиационном формате (включающие направление и скорость ветра, видимость, явления погоды, количество и форму облачности, нижнюю и верхнюю границу облачности).

Рекомендуем: Силиконовая фасадная краска.

Погода в Келлоге - сегодня

Время (UTC), дата Ветер
(°,м/с) 
Видим.   Явления Облачность Т
(°С)
Тd
(°С)
f(%) Тe
(°С)
Pmin
(гПа)
dP
(гПа)
Po
(мм)
O2
(г/м3)
Тmin Tmax R s Состояние
почвы
21 18.02.18 170 (Ю) н/о    н/о 
-13.6 -15.2 88 -14  1020.8  -1  760  323           
00 19.02.18 170 (Ю) н/о    н/о 
-13.3 -15 87 -15  1019.8  -1  759  323  -21.1    0.5  74  равномерный
сухой снег
100% 
03 19.02.18 180 (Ю) н/о    н/о 
-12.5 -14.2 87 -12  1019.6  -0.2  759  322           
06 19.02.18 210 (ЮЗ) н/о    н/о 
-10.2 -12.8 81 -12  1019  -0.5  758  319           
09 19.02.18 230 (ЮЗ) н/о    н/о 
-9.7 -13.1 76 -13  1019.7  0.7  759  318           
12 19.02.18 210 (ЮЗ) н/о    н/о 
-11.7 -13.9 84 -14  1020.4  0.7  759  321    -9.7     
15 19.02.18 190 (Ю) н/о    н/о 
-12.7 -14.6 86 -15  1020.4  0.1  759  322           
18 19.02.18 170 (Ю) н/о    н/о 
-12.5 -14.1 88 -12  1020.1  -0.2  759  322           
21 19.02.18 230 (ЮЗ) н/о    н/о 
-12.9 -14.4 88 -13  1020.7  -0.2  759  322           
00 20.02.18 270 (З) н/о    н/о 
-15 -16.8 86 -15  1022.1  1.3  760  326  -15.2    0.5  75  равномерный
сухой снег
100% 
03 20.02.18 200 (Ю) н/о    н/о 
-22.4 -24.8 81 -23  1023.3  761  336  -22.4         
06 20.02.18 220 (ЮЗ) н/о    н/о 
-15.1 -18.3 76 -15  1023.5  0.4  761  326           
09 20.02.18 240 (ЮЗ) н/о    н/о 
-13.3 -17.2 72 -15  1024.4  0.9  762  324           
12 20.02.18 250 (З) н/о    н/о 
-16.5 -18.9 82 -19  1025.6  1.1  763  329    -13.2       
15 20.02.18 тихо ()   н/о    н/о 
-26.6 -29.4 77 -27  1026.4  0.4  763  343           
18 20.02.18 360 (С) н/о    н/о 
-29.7 -32.9 74 -30  1027  0.5  764  347           
21 20.02.18 тихо ()   н/о    н/о 
-33.8 -37.5 69 -34  1027.8  0.7  764  353           
00 21.02.18 тихо ()   н/о    н/о 
-36.1 -40.2 66 -36  1028.7  0.8  765  357  -36.1      76  равномерный
сухой снег
100% 
03 21.02.18 тихо ()   н/о    н/о 
-35.3 -39.3 67 -35  1029.4  0.7  765  356  -36.4         
06 21.02.18 010 (С) н/о    н/о 
-23.1 -26.6 73 -24  1029.5  0.5  766  339           
09 21.02.18 040 (СВ) н/о    н/о 
-19.2 -24.1 65 -19  1029.8  0.5  766  334           
12 21.02.18 030 (СВ) н/о    н/о 
-26.1 -28.7 79 -27  1030.4  0.3  766  343    -18.1       
15 21.02.18 тихо ()   н/о    н/о 
-32.4 -35.8 72 -32  1030.5  -0.1  766  352           
18 21.02.18 тихо ()   н/о    н/о 
-34.9 -38.7 68 -35  1030.4  -0.3  766  356           
21 21.02.18 тихо ()   н/о    н/о 
-38.1 -42.3 65 -38  1030.4  0.1  766  361           
Время (UTC), дата Ветер
(°,м/с) 
Видим.   Явления Облачность Т
(°С)
Тd
(°С)
f(%) Тe
(°С)
Pmin
(гПа)
dP
(гПа)
Po
(мм)
O2
(г/м3)
Тmin Tmax R s Состояние
почвы

Для получения пояснительной информации подведите курсор к названию столбца.

ПОГОДА в Келлоге - архив

Всё, что Вы хотите узнать о погоде в Келлоге - удобно и подробно!

Выберите нужную дату (начиная с 1 января 2015* года) и нажмите кнопку "Найти".
Будут отображены архивные сводки погоды по пункту Келлог, начиная с указанной даты.


Отображать данные в формате CSV (для использования в таблицах Excel)


Внимание! Наш архив погоды предназначен исключительно для личного некоммерческого использования в познавательных целях. Если Вам необходимы официальные справки о состоянии погоды (для производственных, юридических, коммерческих и т.п. целей), обращайтесь в органы Росгидромета.

*Примечание: данная дата относится к архиву по метеостанциям СССР (Россия, СНГ, Балтия).
Архив по метеостанциям Зарубежной Европы и Азии (кроме Китая) хранится 10 дней, по другим регионам земного шара (Китай, Африка, Америка, Австралия, Океания) - 1 день.

Келлог - район местоположения метеостанции


Название, широта, долгота, высота метеостанции:
Келлог 62.4°ш. 86.6°д. 58 м над ур. моря [Российская Федерация]

Дополнительная информация

В oтличие oт бoльшинства пoгoдных сайтoв мы публикуем пoдрoбную метеoинфoрмацию в детальнoм прoфессиoнальнoм фoрмате.

Характеристики температуры и влажнoсти вoздуха измеряются на высoте 2 м в тени вдали oт зданий и деревьев.
Скoрoсть ветра измеряется на высoте 10 м (на урoвне рoста челoвека скoрoсть ветра ниже в 1.5-2 раза). Если метеoстанция нахoдится в гoрoде или в лесу, тo скoрoсть ветра занижена на 2-4 м/с пo сравнению с oткрытым местoм. Скoрoсть ветра над акватoриями крупных рек и oзёр, а также на вершинах хoлмoв на 2-5 м/с выше, чем в oбычных услoвиях.
Атмoсфернoе давление в разных тoчках местнoсти мoжет значительнo oтличаться oт давления на метеoстанции, в зависимoсти oт услoвий рельефа (при пoдъёме на 10 м давление пoнижается примернo на 1 мм рт.ст.).